Track STARLINK-2423 now! 10-day predictions STARLINK-2423 is classified as:
1 47833U 21018AY 22185.33185369 .00000873 00000-0 77469-4 0 9998 2 47833 53.0528 166.6847 0001804 54.3744 305.7412 15.06405231 74020